Location: ????????
(55.1591°N, 39.1782°E)
Time: 17:51:11
(UTC+00:00)

Cosmos 1805 - Pass Details

Date: 14 April 2024
Orbit: 490 x 493 km, 82.5° (Epoch: 24 May)

Event Time Altitude Azimuth Distance (km) Brightness Sun altitude
Rises 00:38:15 0° 348° (NNW) 2,587 7.2 -13.7°
Reaches altitude 10° 00:40:23 10° 350° (N) 1,699 6.2 -13.4°
Maximum altitude 00:44:06 78° 77° (ENE) 510 3.2 -13.0°
Drops below altitude 10° 00:47:47 10° 165° (SSE) 1,682 5.6 -12.6°
Sets 00:49:53 0° 166° (SSE) 2,558 6.5 -12.4°
